Location: Eekst
(53.0191°N, 6.7366°E)
Time: 05:09:29
(UTC+00:00)

Cosmos 990 Rocket - Pass Details

Date: 15 May 2026
Orbit: 742 x 763 km, 74.0° (Epoch: 6 June)

Event Time Altitude Azimuth Distance (km) Brightness Sun altitude
Rises 21:14:46 0° 333° (NNW) 3,207 9.3 -12.3°
Reaches altitude 10° 21:17:08 10° 334° (NNW) 2,282 8.0 -12.5°
Maximum altitude 21:22:19 88° 66° (ENE) 761 4.0 -12.9°
Enters shadow 21:26:04 19° 155° (SSE) 1,734 5.2 -13.2°
